weather.gov     
National Weather Service

Weather Roundup
NWS Homepage
This page is being discontinued on March 12, 2014.
The same data is available at this site. Please update your bookmarks.
Thank you, and we apologize for the inconvenience.
Please send an email to SR-SRH.Webmaster@noaa.gov with any concerns.


Current Version
Previous Version:    01  02  03  04  05  06  07  08  09  10  11  12  13  14  15  16  17  18  19  20  21  22  23  24  25  26  27  28  29  30  
   31  32  33  34  35  36  37  38  39  40  41  42  43  44  45  46  47  48  49  50  51  52  53  54  55  56  57  58  59  60  
[Printable]
591
ASUS44 KCRP 011010
HRRCRP

SOUTH TEXAS REGIONAL WEATHER ROUNDUP
NATIONAL WEATHER SERVICE CORPUS CHRISTI TX
500 AM CDT SAT NOV 01 2014


TXZ229>244-011100-
...CORPUS CHRISTI AREA OBSERVATIONS...

CITY           SKY/WX    TMP DP  RH WIND       PRES   REMARKS
CORPUS CHRISTI CLEAR     58  47  66 NE14      30.27S
NAS CORPUS CHR CLEAR     62  53  72 NE18      30.26R
ROCKPORT       CLEAR     56  46  69 N12       30.28R
KINGSVILLE NAS CLEAR     54  49  83 N7        30.28R
ALICE          CLEAR     53  47  79 NE8       30.28R
FALFURRIAS     CLEAR     55  47  74 N8        30.27S
$$

...VICTORIA AREA OBSERVATIONS...

CITY           SKY/WX    TMP DP  RH WIND       PRES   REMARKS
VICTORIA       CLEAR     49  42  77 N8        30.31R
BEEVILLE       FAIR      54  44  69 N10       30.30R
PLEASANTON     CLEAR     52  42  69 NE8       30.31S
SAN ANTONIO    CLEAR     51  40  65 NE7       30.33S
$$

...LAREDO AREA OBSERVATIONS...

CITY           SKY/WX    TMP DP  RH WIND       PRES   REMARKS
LAREDO         CLEAR     56  46  69 NE9       30.32R
COTULLA        CLEAR     56  44  64 E6        30.32R
DEL RIO        CLEAR     54  39  57 SE9       30.29S
MCALLEN        CLEAR     60  51  72 N10       30.25R
HEBBRONVILLE   CLEAR     54  45  73 NE3       30.30R
$$

...OTHER TEXAS OBSERVATIONS...

CITY           SKY/WX    TMP DP  RH WIND       PRES   REMARKS
BROWNSVILLE    CLEAR     60  55  83 N7        30.22R
HOUSTON        CLEAR     48  43  82 N5        30.31R
COL. STATION   CLEAR     48  39  71 N12       30.34R
AUSTIN         CLEAR     41  37  86 N8        30.34S
WACO           CLEAR     39  33  79 N6        30.37S
FORT WORTH     CLEAR     39  29  67 N6        30.38R
WICHITA FALLS  CLEAR     36  26  67 NE3       30.38S
LUBBOCK        PTCLDY    36  30  79 E5        30.30F
EL PASO        MOCLDY    58  35  42 N3        30.15F
$$

...MARINE OBSERVATIONS...

STATION/POSITION TIME  SKY/WX   TEMP    WIND        PRES    VSBY  WAVE   SWELL
                                AIR SEA DIR/SP/G                  HT/PER HT/PER
                 (UTC)          (F)     (DEG/KT/KT) (MB)    (MI)  (FT/S) (FT/S)
PORT ARANSAS     1000            62 77  360/ 16/ 19 1025.5R
BUOY 90 E PORT A 1000            69 79   40/ 16/ 21 1023.9R         5/ 7
BUOY 45 SE BAFFI 1000            73 80   30/ 16/ 19 1023.0R         5/ 6
BUOY 200 E PT IS 1000            74 80   40/ 17/ 21 1021.2R         6/ 6
BUOY 15 E GALVES 1000            62 76   30/ 17/ 23 1024.5R         4/ 5
$$




U.S. Dept. of Commerce
NOAA National Weather Service
1325 East West Highway
Silver Spring, MD 20910
E-mail: w-nws.webmaster@noaa.gov
Page last modified: May 16, 2007
NATIONAL WEATHER SERVICE: for Safety, for Work, for Fun - FOR LIFE